Regional Weather Roundup
Issued by NWS Kansas City/Pleasant Hill, MO

Home | Current Version | Previous Version | Text Only | Print | Product List | Glossary On
Versions: 1 2 3 4 5 6 7 8 9 10 11 12 13 14 15 16 17 18 19 20 21 22 23 24 25 26 27 28 29 30 31 32 33 34 35 36 37 38 39 40 41 42 43 44 45 46 47 48 49 50
000
ASUS43 KEAX 202110
RWREAX

WEATHER ROUNDUP FOR EASTERN KANSAS AND NORTHWEST MISSOURI
NATIONAL WEATHER SERVICE KANSAS CITY/PLEASANT HILL MO
400 PM CDT SUN AUG 20 2017

KSZ040-057-103>105-MOZ028-029-037-043-202200-
...KANSAS CITY METROPOLITAN AREA...

CITY           SKY/WX    TMP DP  RH WIND       PRES   REMARKS
K.C. INTL      PTSUNNY   85  71  63 NE15      30.02S HX  90
K.C. DOWNTOWN  PTSUNNY   89  72  56 NE12      29.99S HX  96
LEES SUMMIT    SUNNY     88  73  61 E7        30.02R HX  95
OLATHE - IXD   MOSUNNY   88  74  63 E8        30.01R HX  96
OLATHE - OJC   MOSUNNY   87  75  67 SE9       30.01R HX  96
LAWRENCE       PTSUNNY   87  75  67 E8        29.98S HX  96

$$

MOZ001>008-011>017-020>025-030>033-038>040-044>046-053-054-202200-
...NORTHERN AND CENTRAL MISSOURI...

CITY           SKY/WX    TMP DP  RH WIND       PRES   REMARKS
ST. JOSEPH     MOSUNNY   86  66  51 SE14G26   29.97F
MOSBY          MOCLDY    84  68  58 NE8       30.03R
WARRENSBURG    MOSUNNY   88  73  62 CALM      30.02R HX  96
WHITEMAN AFB   PTSUNNY   87  80  80 S7        30.01R HX 104
CLINTON        MOSUNNY   90  77  66 S6        30.01R HX 102
SEDALIA        SUNNY     89  76  65 S6        30.04R HX 100
WARSAW         NOT AVBL
CHILLICOTHE      N/A     77  68  73 N7        30.04S
KIRKSVILLE     LGT RAIN  76  70  82 SW14      30.02R

$$

MOZ041-047>049-056>058-063>065-088>090-097-202200-
...EASTERN AND SOUTHERN MISSOURI...

CITY           SKY/WX    TMP DP  RH WIND       PRES   REMARKS
ST. LOUIS INTL MOSUNNY   92  69  47 S9        30.00R HX  97
SPIRIT OF STL  SUNNY     91  71  51 S9        29.99R HX  97
COLUMBIA       SUNNY     89  71  55 S9        30.02R HX  95
JEFFERSON CITY SUNNY     89  73  59 S7        29.99S HX  97
ROLLA          SUNNY     88  72  58 S7        30.05R HX  94
OSAGE BEACH    SUNNY     88  73  61 VRB6      30.03R HX  95
SPRINGFIELD    MOSUNNY   91  76  61 VRB7      30.01S HX 103
BRANSON        PTSUNNY   90  75  62 SE7       30.03F HX 100
JOPLIN         SUNNY     95  73  48 SW14G22   29.98S HX 104
WEST PLAINS    MOSUNNY   86  71  60 SE6       30.08R HX  91

$$

IAZ060-094-KSZ022-034>040-054-083-096-NEZ052-066-093-202200-
...KANSAS...SOUTHEAST NEBRASKA AND IOWA...

CITY           SKY/WX    TMP DP  RH WIND       PRES   REMARKS
TOPEKA         PTSUNNY   89  76  65 E14       29.96R HX 100
MANHATTAN      SUNNY     95  74  50 SE12      29.90F HX 105
EMPORIA        SUNNY     93  72  50 S16       29.94S HX 101
CHANUTE        SUNNY     94  74  52 S12       29.95F HX 104
WICHITA        MOSUNNY   97  72  44 S18       29.92F HX 105
OMAHA          CLOUDY    81  67  62 SE14      29.95F
LINCOLN        SUNNY     84  70  62 SE15      29.93F
FALLS CITY     SUNNY     86  69  56 SE16G23   29.94F HX  90
LAMONI         CLOUDY    73  64  73 SW8       29.97F
DES MOINES     CLOUDY    80  66  62 CALM      29.96R

$$




USA.gov is the U.S. government's official web portal to all federal, state and local government web resources and services.